Location: Chircca
(13.7944°S, 72.0608°W)
Time: 05:54:47
(UTC+00:00)

Cosmos 2195 Rocket - Pass Details

Date: 14 July 2020
Orbit: 949 x 993 km, 82.9° (Epoch: 14 August)

Event Time Altitude Azimuth Distance (km) Brightness Sun altitude
Rises 09:37:22 0° 354° (N) 3,659 7.7 -22.6°
Reaches altitude 10° 09:39:51 10° 353° (N) 2,722 6.9 -22.1°
Maximum altitude 09:46:06 78° 266° (W) 1,011 4.4 -20.6°
Drops below altitude 10° 09:52:27 10° 180° (S) 2,764 6.7 -19.2°
Sets 09:55:00 0° 178° (S) 3,719 7.4 -18.6°
